Powrót do katalogu

FLOCK 4G 29

AktywnyNaukaSSO
NORAD 62642·PAYLOAD·🇺🇸 United States

Wystrzelony Jan 14, 2025 z Vandenberg Space Force Base

Loading…

Następne Przeloty (najbliższe 24 godziny)

TLE

ŚwieżeSource: Space-Track

Epoka: Sep 13, 2026, 23:13 UTC

1 62642U 25009AK  26256.96776581  .00034851  00000-0  10894-2 0  9991
2 62642  97.3964 338.6839 0000867 321.0964  39.0216 15.33078724 92480

Śledź FLOCK 4G 29 w czasie rzeczywistym z AllMySat

Download on the App Store